COSMOS 886 DEB, 9960

Orbit data source: Space-Track

COSMOS 886 DEB, 9960 is space debris in LEO originally from a launch on Mon, 27 Dec 1976 UTC launched from the Tyuratam Missile And Space Complex (TTMTR). Debris objects in space refer to the collection of defunct objects orbiting the Earth. Examples of debris include non-operational satellites, rocket bodies, and fragments generated from explosions, collisions, or faulty payload assembly.

Loading next visibility...
Identifier
9960, 1976-126BA
Orbit
LEO
Country
Flag of CISCIS
Related business
Manufacturer
Unknown
Mission
Spacecraft
Bus & Motor
Unknown
Mass
Unknown
Launch date (UTC)
1976-12-27 (49 years ago)
Launch vehicle
Unknown
Launch site
Tyuratam Missile And Space Complex (TTMTR)
Object type
Payload
Rocket body
Debris
Shape & HBR
Unknown shape, 0.1 m
Radar Cross Section
Small (<0.1 m²)

Expand to show TLE details & history
Last TLE update: 9 hours ago

TLE from 9 hours ago
0 COSMOS 886 DEB
1  9960U 76126BA  26130.19114729  .00000921  00000-0  71785-3 0  9995
2  9960  65.8665  72.5569 0853813 343.0680  14.3376 12.89695695273330
Epoch: 2026-05-10T04:35Z
TLE epoch observation values (Epoch: 2026-05-10T04:35:15.125Z)
Latitude
-0.00005°
Longitude
135.74608°
Altitude
673.146 km
Speed
7.824 km/s
True Right ascension
04h 50m 13s
True Declination
0° 00' 00"
Sunlit
Object was in daylight at epoch
Visualization orbit readout
Latitude
Unknown
Longitude
Unknown
Altitude
Unknown
Speed
Unknown
Apparent Right ascension
Unknown
Apparent Declination
Unknown
Sunlit
N/A
Visualization observer readout
Local Sidereal Time
21:19:04
Azimuth
Unknown
Elevation
Unknown
Doppler factor
Unknown
Orbital elements
Apogee altitude
1,956.971 km
Perigee altitude
645.612 km
Semi-major axis
7,679.429 km
Eccentricity
0.08538
Inclination
65.8665°
RAAN
72.5569°
Arg. of periapsis
343.068°
True anomaly
17.03739°
Mean anomaly
14.3376°
Eccentric anomaly
15.65791°
Mean motion
3.22515 °/min
Orbital period
111.62 mins
BSTAR
0.00071785
Loading maneuver chart data...
Computing Atmospheric mass density...
Loading historical data...
Loading historical data...
Loading historical data...
Loading historical data...
Loading historical data...
Loading historical data...
Loading historical data...

Documentation

Showing up to 5 results
|